sat.trackr.live / text

‹ back to catalog

ECHOSTAR 14

NORAD 36499 · 2010-010A

PAYLOAD ACTIVE UNKNOWN

§ Identity

Operator
Country
US
Launch date
2010-03-20
Launch site
TYMSC
Launch vehicle
Mass (kg)
RCS (m²)
46.23

Purposes: comms

External: N2YO · Heavens-Above · Gunter

§ Orbital elements

Epoch: 2026-05-25T03:42:38.615040Z

Period
1,436.09 min
Inclination
0.0164°
Eccentricity
0.0002500
Mean motion
1.00272305 rev/d
Perigee alt
35,775.9 km
Apogee alt
35,797.0 km
Semi-major
42,164.6 km
B*
0.0000e+0
RAAN
337.1506°
Arg perigee
97.7393°
Mean anomaly
104.6106°
Rev number
4,632

§ Raw data

ECHOSTAR 141 36499U 10010A   26145.15461360 -.00000002  00000+0  00000+0 0  99982 36499   0.0164 337.1506 0002500  97.7393 104.6106  1.00272305 46327

JSON: /api/v1/satellites/36499 · /tle

For live sub-satellite position, see the globe view (requires WebGL).

§ Visibility from observer

Set your observer location to see the next 7 days of passes ≥ 10°. The values pass through the URL so the page stays shareable.

No JS? Fill the form by hand. The geolocation button needs JavaScript.